QPF
0.00 0.00 0.00 0.00 0.00 0.00 0.00 0.00 0.00 0.00 0.00 0.00 0.01 0.01 0.02 0.01 0.00 0.00 0.00 0.00 0.01 0.01 0.01 0.01 0.01 0.03 0.04 0.04 0.04 0.03 0.03 0.03 0.02 0.02 0.02 0.03 0.03 0.04 0.05 0.05 0.05 0.06 0.07 0.07
0.01 0.00 0.00 0.00 0.00 0.00 0.00 0.00 0.00 0.00 0.00 0.00 0.00 0.01 0.01 0.02 0.01 0.00 0.00 0.00 0.00 0.01 0.01 0.01 0.01 0.02 0.03 0.03 0.04 0.04 0.03 0.03 0.02 0.02 0.01 0.02 0.03 0.05 0.05 0.07 0.08 0.08 0.08 0.09
0.01 0.00 0.00 0.00 0.00 0.00 0.00 0.00 0.00 0.00 0.00 0.00 0.00 0.01 0.01 0.01 0.01 0.01 0.00 0.00 0.01 0.01 0.01 0.01 0.01 0.01 0.02 0.02 0.02 0.03 0.03 0.02 0.02 0.02 0.01 0.01 0.02 0.04 0.06 0.06 0.10 0.12 0.11 0.10
0.00 0.00 0.00 0.00 0.00 0.00 0.00 0.00 0.00 0.00 0.01 0.01 0.00 0.00 0.00 0.00 0.01 0.02 0.01 0.01 0.01 0.01 0.01 0.01 0.01 0.01 0.01 0.01 0.02 0.02 0.02 0.02 0.01 0.01 0.01 0.01 0.02 0.03 0.04 0.05 0.07 0.14 0.15 0.14
0.01 0.00 0.00 0.00 0.00 0.00 0.00 0.00 0.00 0.00 0.01 0.01 0.01 0.01 0.00 0.00 0.00 0.01 0.01 0.01 0.01 0.01 0.01 0.01 0.01 0.01 0.01 0.01 0.01 0.01 0.01 0.01 0.01 0.01 0.02 0.01 0.02 0.02 0.04 0.05 0.07 0.10 0.15 0.16
0.00 0.00 0.00 0.00 0.00 0.00 0.00 0.00 0.00 0.01 0.02 0.02 0.01 0.00 0.00 0.00 0.00 0.00 0.01 0.02 0.01 0.01 0.01 0.01 0.01 0.01 0.01 0.01 0.01 0.01 0.01 0.01 0.01 0.01 0.01 0.02 0.03 0.03 0.04 0.04 0.06 0.08 0.09 0.13
0.01 0.00 0.00 0.00 0.00 0.00 0.00 0.01 0.02 0.03 0.03 0.02 0.00 0.00 0.00 0.00 0.00 0.01 0.01 0.02 0.02 0.01 0.01 0.00 0.01 0.01 0.01 0.01 0.01 0.01 0.01 0.01 0.01 0.01 0.01 0.01 0.02 0.03 0.04 0.04 0.05 0.07 0.08 0.08
0.02 0.01 0.00 0.00 0.00 0.00 0.00 0.01 0.01 0.02 0.01 0.00 0.00 0.00 0.00 0.00 0.00 0.01 0.02 0.02 0.02 0.02 0.01 0.01 0.01 0.01 0.01 0.02 0.02 0.02 0.02 0.01 0.01 0.01 0.01 0.01 0.01 0.02 0.03 0.03 0.04 0.05 0.07 0.07
0.02 0.01 0.00 0.00 0.00 0.00 0.01 0.01 0.01 0.03 0.02 0.02 0.01 0.00 0.00 0.00 0.00 0.01 0.01 0.01 0.01 0.02 0.02 0.02 0.02 0.02 0.01 0.02 0.02 0.03 0.02 0.02 0.02 0.01 0.02 0.01 0.01 0.02 0.04 0.04 0.03 0.04 0.05 0.06
0.02 0.02 0.01 0.00 0.01 0.01 0.01 0.01 0.02 0.03 0.03 0.03 0.02 0.01 0.00 0.00 0.00 0.01 0.01 0.02 0.02 0.03 0.03 0.03 0.02 0.02 0.02 0.02 0.02 0.03 0.03 0.02 0.02 0.02 0.01 0.01 0.01 0.02 0.04 0.04 0.03 0.03 0.04 0.04
0.03 0.03 0.01 0.01 0.00 0.00 0.01 0.01 0.01 0.02 0.02 0.02 0.01 0.00 0.00 0.00 0.01 0.01 0.02 0.02 0.03 0.03 0.02 0.02 0.02 0.03 0.02 0.02 0.03 0.03 0.03 0.02 0.02 0.02 0.01 0.01 0.01 0.02 0.03 0.04 0.04 0.04 0.03 0.03
0.02 0.03 0.02 0.01 0.01 0.01 0.01 0.01 0.01 0.03 0.03 0.02 0.01 0.01 0.00 0.00 0.00 0.01 0.02 0.02 0.03 0.02 0.02 0.02 0.03 0.03 0.03 0.03 0.04 0.03 0.02 0.02 0.02 0.01 0.01 0.01 0.01 0.01 0.02 0.03 0.03 0.03 0.03 0.02
0.01 0.03 0.03 0.02 0.01 0.01 0.01 0.01 0.01 0.02 0.03 0.02 0.02 0.01 0.00 0.00 0.00 0.01 0.01 0.02 0.03 0.02 0.02 0.03 0.03 0.03 0.04 0.04 0.03 0.02 0.02 0.02 0.01 0.01 0.01 0.01 0.01 0.01 0.01 0.02 0.02 0.01 0.02 0.02
0.03 0.03 0.03 0.02 0.01 0.00 0.00 0.00 0.00 0.01 0.03 0.02 0.01 0.00 0.00 0.00 0.00 0.01 0.01 0.01 0.02 0.03 0.02 0.02 0.02 0.02 0.02 0.02 0.02 0.02 0.02 0.02 0.01 0.01 0.01 0.01 0.01 0.00 0.00 0.01 0.01 0.01 0.01 0.01
0.02 0.03 0.02 0.01 0.01 0.01 0.00 0.00 0.00 0.01 0.01 0.01 0.01 0.01 0.00 0.00 0.00 0.00 0.01 0.01 0.02 0.02 0.02 0.01 0.01 0.01 0.01 0.01 0.01 0.01 0.01 0.01 0.01 0.01 0.01 0.01 0.01 0.01 0.00 0.00 0.00 0.00 0.00 0.01
0.02 0.02 0.02 0.01 0.00 0.00 0.01 0.00 0.00 0.00 0.00 0.01 0.01 0.01 0.00 0.00 0.00 0.00 0.01 0.01 0.02 0.01 0.01 0.01 0.01 0.00 0.00 0.00 0.00 0.01 0.01 0.00 0.00 0.00 0.00 0.00 0.01 0.00 0.00 0.00 0.00 0.00 0.01 0.00
0.02 0.02 0.03 0.02 0.01 0.01 0.01 0.00 0.00 0.00 0.00 0.00 0.00 0.00 0.00 0.00 0.00 0.00 0.00 0.01 0.01 0.01 0.01 0.01 0.01 0.00 0.00 0.00 0.00 0.00 0.00 0.00 0.00 0.00 0.00 0.00 0.00 0.00 0.00 0.00 0.00 0.00 0.00 0.00
0.02 0.02 0.03 0.02 0.02 0.02 0.01 0.00 0.00 0.00 0.00 0.00 0.00 0.00 0.00 0.00 0.00 0.00 0.00 0.01 0.01 0.01 0.00 0.00 0.00 0.00 0.00 0.00 0.00 0.01 0.00 0.00 0.00 0.00 0.01 0.00 0.00 0.00 0.00 0.00 0.00 0.00 0.01 0.01
0.01 0.02 0.04 0.03 0.02 0.01 0.00 0.00 0.00 0.00 0.00 0.00 0.00 0.00 0.00 0.00 0.00 0.00 0.00 0.00 0.00 0.00 0.00 0.00 0.00 0.00 0.00 0.00 0.00 0.00 0.00 0.00 0.00 0.00 0.01 0.00 0.00 0.00 0.00 0.00 0.00 0.00 0.00 0.00
0.01 0.02 0.05 0.05 0.03 0.01 0.00 0.00 0.00 0.00 0.00 0.00 0.00 0.00 0.00 0.00 0.00 0.00 0.00 0.00 0.00 0.00 0.00 0.00 0.00 0.00 0.00 0.00 0.00 0.00 0.00 0.00 0.00 0.00 0.01 0.00 0.00 0.00 0.00 0.00 0.00 0.00 0.00 0.00
0.02 0.03 0.04 0.04 0.03 0.02 0.00 0.00 0.00 0.00 0.00 0.00 0.00 0.00 0.00 0.00 0.00 0.00 0.00 0.00 0.00 0.00 0.00 0.00 0.00 0.00 0.00 0.00 0.00 0.00 0.00 0.00 0.00 0.00 0.00 0.00 0.00 0.00 0.00 0.00 0.01 0.01 0.01 0.01
0.02 0.02 0.02 0.02 0.03 0.02 0.01 0.00 0.01 0.01 0.00 0.00 0.00 0.00 0.00 0.00 0.00 0.00 0.00 0.00 0.00 0.00 0.00 0.00 0.00 0.01 0.01 0.01 0.00 0.00 0.00 0.00 0.00 0.00 0.00 0.00 0.00 0.00 0.00 0.00 0.00 0.00 0.01 0.01
0.02 0.03 0.03 0.03 0.02 0.02 0.01 0.01 0.01 0.00 0.00 0.00 0.00 0.00 0.00 0.00 0.00 0.00 0.00 0.00 0.00 0.00 0.00 0.00 0.00 0.01 0.01 0.01 0.00 0.00 0.00 0.00 0.00 0.00 0.00 0.00 0.00 0.00 0.00 0.00 0.00 0.00 0.01 0.01
0.01 0.01 0.01 0.01 0.01 0.01 0.01 0.01 0.01 0.00 0.00 0.00 0.00 0.00 0.00 0.00 0.00 0.00 0.00 0.00 0.00 0.00 0.00 0.00 0.00 0.00 0.01 0.01 0.00 0.00 0.00 0.00 0.00 0.00 0.00 0.00 0.00 0.00 0.00 0.00 0.00 0.01 0.01 0.01
0.01 0.00 0.01 0.01 0.01 0.00 0.00 0.00 0.00 0.00 0.00 0.00 0.00 0.00 0.00 0.00 0.00 0.00 0.00 0.00 0.00 0.00 0.00 0.00 0.00 0.00 0.00 0.00 0.00 0.00 0.00 0.00 0.00 0.00 0.00 0.00 0.00 0.00 0.00 0.00 0.01 0.01 0.01 0.01
0.00 0.00 0.01 0.01 0.00 0.00 0.00 0.00 0.00 0.00 0.00 0.00 0.00 0.00 0.00 0.00 0.00 0.00 0.00 0.00 0.00 0.00 0.00 0.00 0.00 0.00 0.00 0.00 0.00 0.00 0.00 0.00 0.00 0.01 0.00 0.00 0.00 0.00 0.00 0.00 0.00 0.01 0.01 0.01
MSLP
1015.74 1015.64 1015.40 1015.06 1014.66 1014.24 1013.86 1013.55 1013.31 1013.14 1013.01 1012.87 1012.71 1012.50 1012.23 1011.93 1011.62 1011.32 1011.06 1010.86 1010.71 1010.61 1010.55 1010.50 1010.47 1010.44 1010.42 1010.43 1010.48 1010.58 1010.76 1011.01 1011.31 1011.66 1012.02 1012.38 1012.71 1013.02 1013.28 1013.52 1013.73 1013.94 1014.16 1014.39
1015.60 1015.41 1015.09 1014.71 1014.30 1013.93 1013.65 1013.46 1013.35 1013.30 1013.24 1013.14 1012.96 1012.69 1012.33 1011.92 1011.50 1011.13 1010.83 1010.62 1010.52 1010.48 1010.49 1010.52 1010.53 1010.52 1010.49 1010.46 1010.45 1010.49 1010.61 1010.81 1011.07 1011.39 1011.74 1012.08 1012.40 1012.67 1012.90 1013.09 1013.26 1013.43 1013.62 1013.84
1015.43 1015.15 1014.77 1014.36 1013.98 1013.68 1013.50 1013.45 1013.47 1013.52 1013.53 1013.45 1013.23 1012.87 1012.41 1011.88 1011.35 1010.91 1010.58 1010.39 1010.33 1010.38 1010.48 1010.59 1010.67 1010.69 1010.67 1010.61 1010.57 1010.56 1010.62 1010.77 1010.99 1011.28 1011.60 1011.91 1012.19 1012.42 1012.59 1012.72 1012.84 1012.96 1013.10 1013.29
1015.29 1014.93 1014.50 1014.09 1013.75 1013.54 1013.48 1013.56 1013.71 1013.85 1013.91 1013.82 1013.55 1013.10 1012.51 1011.86 1011.23 1010.71 1010.35 1010.18 1010.18 1010.31 1010.51 1010.71 1010.86 1010.94 1010.93 1010.87 1010.80 1010.75 1010.77 1010.87 1011.05 1011.30 1011.58 1011.85 1012.08 1012.25 1012.36 1012.42 1012.46 1012.51 1012.60 1012.74
1015.23 1014.80 1014.35 1013.95 1013.67 1013.56 1013.62 1013.81 1014.07 1014.29 1014.37 1014.26 1013.92 1013.37 1012.66 1011.90 1011.17 1010.59 1010.21 1010.05 1010.10 1010.30 1010.59 1010.87 1011.10 1011.22 1011.25 1011.19 1011.10 1011.02 1011.01 1011.07 1011.21 1011.41 1011.65 1011.86 1012.03 1012.14 1012.17 1012.16 1012.12 1012.09 1012.10 1012.17
1015.31 1014.83 1014.36 1013.98 1013.77 1013.75 1013.91 1014.21 1014.54 1014.80 1014.89 1014.74 1014.33 1013.69 1012.87 1012.01 1011.20 1010.56 1010.16 1010.01 1010.10 1010.37 1010.72 1011.07 1011.36 1011.53 1011.58 1011.53 1011.43 1011.34 1011.29 1011.32 1011.42 1011.58 1011.76 1011.92 1012.03 1012.07 1012.03 1011.93 1011.81 1011.69 1011.62 1011.61
1015.55 1015.04 1014.57 1014.22 1014.06 1014.12 1014.35 1014.71 1015.08 1015.35 1015.42 1015.22 1014.74 1014.01 1013.11 1012.17 1011.31 1010.64 1010.22 1010.09 1010.21 1010.52 1010.92 1011.32 1011.64 1011.84 1011.90 1011.86 1011.76 1011.65 1011.58 1011.57 1011.64 1011.76 1011.89 1011.99 1012.04 1012.01 1011.90 1011.72 1011.52 1011.32 1011.16 1011.07
1015.95 1015.43 1014.98 1014.67 1014.56 1014.65 1014.93 1015.30 1015.66 1015.90 1015.92 1015.66 1015.10 1014.30 1013.35 1012.36 1011.48 1010.80 1010.39 1010.28 1010.42 1010.76 1011.18 1011.61 1011.94 1012.15 1012.23 1012.18 1012.07 1011.94 1011.85 1011.82 1011.85 1011.92 1012.00 1012.06 1012.05 1011.96 1011.78 1011.54 1011.27 1011.00 1010.76 1010.59
1016.50 1016.00 1015.58 1015.31 1015.22 1015.33 1015.59 1015.93 1016.24 1016.41 1016.34 1016.00 1015.38 1014.53 1013.55 1012.56 1011.69 1011.04 1010.66 1010.57 1010.74 1011.09 1011.52 1011.94 1012.28 1012.48 1012.54 1012.49 1012.37 1012.22 1012.10 1012.04 1012.03 1012.07 1012.10 1012.11 1012.06 1011.92 1011.69 1011.40 1011.08 1010.75 1010.46 1010.22
1017.17 1016.72 1016.34 1016.10 1016.03 1016.12 1016.33 1016.59 1016.79 1016.84 1016.67 1016.24 1015.56 1014.68 1013.70 1012.75 1011.93 1011.33 1011.00 1010.95 1011.14 1011.49 1011.92 1012.32 1012.64 1012.82 1012.86 1012.79 1012.65 1012.48 1012.34 1012.25 1012.21 1012.21 1012.21 1012.17 1012.08 1011.90 1011.64 1011.32 1010.96 1010.60 1010.26 1009.98
1017.90 1017.53 1017.22 1017.01 1016.93 1016.98 1017.10 1017.23 1017.29 1017.20 1016.90 1016.37 1015.64 1014.76 1013.82 1012.92 1012.18 1011.66 1011.40 1011.39 1011.61 1011.96 1012.36 1012.74 1013.02 1013.16 1013.18 1013.09 1012.93 1012.75 1012.59 1012.47 1012.40 1012.36 1012.32 1012.25 1012.13 1011.92 1011.64 1011.30 1010.93 1010.56 1010.20 1009.90
1018.66 1018.38 1018.14 1017.97 1017.88 1017.85 1017.86 1017.84 1017.73 1017.48 1017.05 1016.43 1015.66 1014.78 1013.89 1013.08 1012.44 1012.01 1011.82 1011.87 1012.09 1012.44 1012.81 1013.15 1013.38 1013.50 1013.49 1013.38 1013.21 1013.02 1012.85 1012.71 1012.62 1012.55 1012.48 1012.37 1012.22 1011.99 1011.70 1011.36 1010.99 1010.61 1010.26 1009.95
1019.41 1019.23 1019.06 1018.92 1018.80 1018.69 1018.57 1018.39 1018.11 1017.70 1017.14 1016.44 1015.64 1014.79 1013.97 1013.25 1012.70 1012.37 1012.25 1012.34 1012.57 1012.89 1013.22 1013.51 1013.70 1013.78 1013.75 1013.63 1013.46 1013.27 1013.10 1012.97 1012.86 1012.76 1012.67 1012.54 1012.36 1012.12 1011.82 1011.47 1011.11 1010.75 1010.41 1010.10
1020.13 1020.04 1019.92 1019.79 1019.63 1019.44 1019.18 1018.85 1018.41 1017.86 1017.19 1016.42 1015.61 1014.80 1014.05 1013.43 1012.98 1012.73 1012.66 1012.76 1012.98 1013.27 1013.55 1013.78 1013.93 1013.97 1013.93 1013.81 1013.66 1013.49 1013.34 1013.21 1013.10 1013.00 1012.88 1012.73 1012.53 1012.27 1011.96 1011.62 1011.27 1010.92 1010.60 1010.31
1020.79 1020.76 1020.67 1020.53 1020.32 1020.03 1019.66 1019.19 1018.61 1017.94 1017.19 1016.40 1015.60 1014.84 1014.17 1013.63 1013.27 1013.07 1013.03 1013.13 1013.31 1013.54 1013.75 1013.92 1014.02 1014.04 1013.99 1013.89 1013.77 1013.64 1013.52 1013.42 1013.32 1013.22 1013.09 1012.91 1012.69 1012.42 1012.11 1011.77 1011.42 1011.09 1010.78 1010.52
1021.38 1021.36 1021.27 1021.09 1020.81 1020.43 1019.95 1019.37 1018.70 1017.95 1017.17 1016.37 1015.61 1014.91 1014.32 1013.86 1013.56 1013.39 1013.35 1013.41 1013.53 1013.68 1013.81 1013.91 1013.96 1013.96 1013.91 1013.85 1013.77 1013.69 1013.62 1013.55 1013.48 1013.38 1013.24 1013.06 1012.82 1012.53 1012.20 1011.86 1011.51 1011.19 1010.90 1010.65
1021.89 1021.83 1021.69 1021.44 1021.08 1020.62 1020.05 1019.39 1018.65 1017.88 1017.10 1016.34 1015.64 1015.02 1014.51 1014.12 1013.85 1013.69 1013.62 1013.62 1013.66 1013.71 1013.75 1013.77 1013.76 1013.74 1013.71 1013.67 1013.65 1013.63 1013.61 1013.59 1013.54 1013.45 1013.31 1013.12 1012.86 1012.55 1012.21 1011.85 1011.51 1011.19 1010.91 1010.68
1022.29 1022.15 1021.92 1021.58 1021.13 1020.58 1019.94 1019.24 1018.49 1017.73 1017.00 1016.31 1015.69 1015.16 1014.72 1014.39 1014.14 1013.97 1013.85 1013.77 1013.70 1013.64 1013.58 1013.52 1013.47 1013.42 1013.40 1013.40 1013.42 1013.46 1013.50 1013.51 1013.49 1013.41 1013.27 1013.06 1012.78 1012.45 1012.09 1011.72 1011.37 1011.05 1010.78 1010.56
1022.56 1022.32 1021.97 1021.52 1020.98 1020.36 1019.68 1018.96 1018.23 1017.52 1016.86 1016.26 1015.74 1015.30 1014.94 1014.65 1014.41 1014.21 1014.02 1013.85 1013.68 1013.52 1013.36 1013.23 1013.13 1013.07 1013.05 1013.08 1013.15 1013.23 1013.30 1013.35 1013.34 1013.26 1013.10 1012.86 1012.56 1012.20 1011.82 1011.44 1011.08 1010.77 1010.50 1010.30
1022.70 1022.32 1021.85 1021.29 1020.67 1019.99 1019.28 1018.57 1017.89 1017.25 1016.68 1016.18 1015.76 1015.41 1015.12 1014.86 1014.62 1014.38 1014.14 1013.88 1013.62 1013.37 1013.13 1012.94 1012.80 1012.73 1012.72 1012.77 1012.86 1012.97 1013.06 1013.11 1013.10 1013.00 1012.81 1012.54 1012.21 1011.82 1011.42 1011.02 1010.66 1010.35 1010.09 1009.90
1022.67 1022.17 1021.58 1020.93 1020.24 1019.52 1018.80 1018.12 1017.49 1016.93 1016.46 1016.05 1015.73 1015.45 1015.20 1014.97 1014.72 1014.46 1014.16 1013.84 1013.50 1013.18 1012.89 1012.66 1012.50 1012.42 1012.43 1012.49 1012.60 1012.71 1012.80 1012.84 1012.80 1012.66 1012.43 1012.12 1011.74 1011.32 1010.90 1010.49 1010.13 1009.83 1009.59 1009.42
1022.47 1021.87 1021.20 1020.47 1019.73 1018.99 1018.28 1017.63 1017.05 1016.57 1016.16 1015.84 1015.57 1015.35 1015.13 1014.91 1014.66 1014.36 1014.03 1013.67 1013.29 1012.94 1012.63 1012.39 1012.24 1012.17 1012.18 1012.26 1012.37 1012.47 1012.54 1012.55 1012.46 1012.27 1011.99 1011.63 1011.20 1010.75 1010.31 1009.90 1009.54 1009.25 1009.04 1008.90
1022.09 1021.43 1020.70 1019.93 1019.16 1018.42 1017.72 1017.10 1016.57 1016.13 1015.77 1015.49 1015.25 1015.05 1014.84 1014.62 1014.35 1014.04 1013.69 1013.32 1012.94 1012.59 1012.30 1012.09 1011.96 1011.92 1011.95 1012.04 1012.15 1012.24 1012.28 1012.24 1012.10 1011.85 1011.51 1011.10 1010.63 1010.16 1009.70 1009.29 1008.95 1008.68 1008.51 1008.41
1021.56 1020.85 1020.10 1019.32 1018.55 1017.82 1017.14 1016.53 1016.02 1015.59 1015.25 1014.97 1014.73 1014.51 1014.29 1014.04 1013.76 1013.45 1013.10 1012.74 1012.40 1012.09 1011.85 1011.69 1011.61 1011.62 1011.69 1011.80 1011.91 1011.99 1012.00 1011.91 1011.72 1011.42 1011.03 1010.57 1010.08 1009.59 1009.13 1008.73 1008.41 1008.18 1008.03 1007.97
1020.88 1020.17 1019.42 1018.65 1017.90 1017.17 1016.51 1015.91 1015.39 1014.95 1014.57 1014.26 1013.98 1013.72 1013.46 1013.19 1012.89 1012.57 1012.25 1011.93 1011.64 1011.40 1011.23 1011.15 1011.14 1011.22 1011.34 1011.47 1011.60 1011.67 1011.66 1011.54 1011.31 1010.98 1010.56 1010.08 1009.58 1009.08 1008.64 1008.26 1007.97 1007.78 1007.67 1007.65
1020.09 1019.39 1018.66 1017.92 1017.19 1016.48 1015.82 1015.21 1014.66 1014.18 1013.75 1013.37 1013.03 1012.71 1012.40 1012.09 1011.78 1011.47 1011.17 1010.90 1010.68 1010.53 1010.45 1010.45 1010.53 1010.67 1010.85 1011.03 1011.17 1011.26 1011.24 1011.12 1010.88 1010.54 1010.12 1009.65 1009.16 1008.69 1008.27 1007.93 1007.68 1007.52 1007.45 1007.46
Thickness
5574 5566 5565 5571 5574 5579 5579 5577 5577 5582 5589 5586 5584 5589 5594 5594 5592 5590 5588 5589 5591 5591 5591 5589 5588 5586 5585 5584 5585 5585 5585 5586 5586 5586 5586 5586 5588 5590 5591 5594 5596 5599 5601 5603
5556 5557 5568 5569 5570 5570 5569 5566 5567 5572 5578 5577 5575 5580 5586 5587 5586 5587 5585 5584 5585 5583 5581 5579 5578 5576 5576 5575 5575 5575 5576 5576 5577 5578 5578 5579 5580 5581 5583 5585 5588 5590 5593 5596
5551 5557 5564 5563 5561 5560 5559 5557 5558 5560 5563 5566 5563 5568 5577 5581 5581 5582 5582 5581 5579 5577 5575 5571 5569 5567 5566 5566 5566 5568 5567 5568 5568 5569 5570 5570 5571 5573 5574 5576 5579 5582 5585 5589
5544 5551 5554 5552 5551 5553 5549 5555 5554 5553 5545 5540 5549 5544 5565 5571 5573 5575 5573 5571 5570 5570 5567 5564 5562 5559 5558 5558 5558 5558 5559 5560 5560 5560 5561 5562 5563 5565 5567 5569 5572 5574 5577 5580
5535 5542 5544 5543 5544 5545 5543 5548 5546 5542 5535 5529 5535 5530 5549 5559 5564 5568 5566 5565 5562 5561 5559 5557 5555 5553 5551 5549 5548 5549 5550 5551 5552 5552 5553 5554 5555 5557 5559 5561 5563 5566 5569 5571
5528 5534 5536 5537 5539 5539 5538 5534 5529 5520 5515 5517 5529 5524 5538 5547 5559 5562 5560 5557 5555 5552 5550 5548 5546 5544 5542 5540 5540 5540 5541 5542 5543 5544 5545 5546 5548 5549 5551 5553 5555 5557 5560 5562
5515 5521 5526 5528 5527 5527 5524 5512 5503 5502 5499 5511 5523 5521 5533 5549 5553 5553 5552 5549 5546 5543 5541 5538 5536 5535 5533 5532 5531 5531 5533 5533 5534 5535 5536 5538 5540 5541 5544 5546 5547 5549 5551 5553
5500 5505 5513 5516 5517 5514 5513 5510 5500 5498 5495 5500 5510 5514 5532 5541 5543 5544 5543 5541 5537 5534 5531 5530 5528 5526 5524 5524 5523 5523 5524 5525 5526 5527 5528 5530 5532 5533 5535 5537 5539 5541 5543 5544
5492 5498 5505 5508 5510 5510 5504 5499 5502 5490 5484 5486 5496 5508 5524 5534 5533 5532 5531 5529 5526 5524 5522 5520 5518 5516 5515 5515 5516 5516 5516 5517 5518 5519 5520 5521 5523 5525 5527 5528 5530 5532 5533 5534
5489 5484 5492 5496 5500 5501 5499 5494 5483 5481 5480 5489 5495 5499 5511 5522 5521 5521 5519 5517 5516 5515 5512 5510 5508 5508 5507 5507 5507 5508 5509 5509 5510 5511 5512 5514 5515 5517 5518 5519 5521 5522 5523 5524
5481 5473 5474 5480 5483 5486 5487 5484 5480 5472 5472 5476 5481 5501 5516 5516 5516 5513 5512 5510 5508 5506 5503 5502 5500 5499 5498 5498 5498 5498 5499 5500 5501 5502 5504 5505 5506 5508 5509 5510 5511 5512 5513 5514
5470 5460 5459 5467 5475 5478 5479 5479 5472 5470 5465 5461 5463 5490 5511 5506 5507 5506 5504 5503 5501 5498 5495 5493 5492 5491 5490 5489 5489 5490 5491 5492 5493 5494 5495 5496 5497 5498 5499 5500 5500 5502 5503 5503
5461 5452 5451 5460 5463 5463 5466 5468 5465 5459 5454 5451 5459 5487 5499 5495 5497 5498 5497 5494 5491 5489 5486 5484 5483 5483 5482 5482 5481 5482 5483 5483 5484 5485 5486 5486 5487 5487 5488 5489 5490 5491 5491 5492
5454 5442 5447 5458 5464 5455 5454 5457 5456 5453 5448 5450 5462 5479 5490 5488 5487 5488 5487 5485 5481 5480 5479 5477 5475 5475 5476 5475 5475 5475 5475 5475 5476 5476 5477 5477 5477 5478 5478 5479 5479 5479 5480 5481
5442 5435 5437 5443 5449 5449 5451 5452 5449 5448 5449 5451 5467 5469 5482 5479 5478 5479 5477 5476 5475 5473 5472 5471 5470 5468 5469 5468 5468 5468 5467 5467 5468 5468 5468 5468 5468 5468 5468 5468 5468 5468 5469 5469
5428 5427 5428 5434 5442 5441 5445 5448 5445 5448 5451 5450 5455 5464 5476 5471 5469 5467 5467 5467 5467 5467 5467 5465 5464 5462 5462 5462 5462 5461 5460 5460 5460 5459 5459 5459 5458 5458 5457 5457 5457 5457 5457 5457
5415 5416 5420 5427 5429 5432 5437 5449 5447 5446 5448 5451 5455 5468 5466 5462 5461 5461 5460 5460 5461 5461 5460 5459 5458 5457 5456 5456 5455 5454 5453 5452 5452 5451 5450 5449 5449 5448 5447 5447 5446 5446 5445 5445
5410 5410 5408 5411 5416 5420 5455 5452 5449 5447 5448 5447 5452 5455 5455 5457 5456 5455 5454 5454 5454 5454 5453 5452 5451 5450 5449 5448 5447 5446 5445 5444 5443 5442 5441 5440 5439 5438 5437 5436 5436 5435 5434 5434
5409 5407 5401 5401 5406 5424 5446 5446 5440 5438 5443 5446 5445 5447 5447 5447 5447 5447 5448 5448 5448 5448 5447 5446 5445 5443 5442 5440 5439 5438 5436 5435 5435 5434 5433 5432 5430 5429 5427 5426 5426 5425 5424 5423
5401 5399 5397 5395 5404 5419 5444 5442 5437 5436 5437 5446 5441 5440 5437 5438 5435 5442 5446 5442 5441 5440 5439 5438 5436 5435 5433 5432 5431 5430 5429 5427 5427 5427 5425 5423 5422 5420 5419 5418 5416 5415 5414 5413
5390 5388 5390 5393 5397 5414 5429 5427 5430 5428 5438 5440 5436 5434 5430 5430 5434 5437 5436 5435 5433 5431 5430 5429 5428 5426 5426 5424 5423 5421 5421 5420 5421 5419 5417 5415 5414 5412 5410 5408 5407 5405 5404 5403
5387 5382 5381 5383 5389 5411 5420 5415 5418 5426 5429 5428 5429 5428 5426 5426 5426 5426 5426 5425 5424 5422 5421 5420 5418 5417 5417 5416 5415 5414 5413 5413 5412 5410 5408 5406 5405 5403 5402 5399 5397 5396 5394 5393
5383 5389 5388 5391 5407 5414 5410 5412 5415 5416 5417 5420 5419 5419 5419 5417 5417 5417 5416 5415 5414 5413 5411 5410 5409 5408 5408 5407 5407 5406 5406 5405 5403 5401 5399 5397 5396 5394 5393 5391 5389 5386 5385 5383
5377 5380 5379 5382 5396 5402 5402 5403 5405 5406 5408 5410 5410 5411 5411 5410 5409 5408 5407 5406 5405 5404 5403 5402 5400 5400 5399 5399 5399 5399 5399 5397 5395 5392 5390 5388 5386 5385 5383 5382 5381 5378 5376 5374
5377 5371 5372 5378 5390 5392 5398 5399 5401 5401 5401 5401 5402 5403 5403 5401 5401 5400 5399 5398 5397 5397 5395 5394 5393 5393 5393 5392 5391 5391 5391 5389 5386 5384 5382 5380 5378 5376 5375 5374 5372 5370 5369 5367
5372 5372 5375 5387 5392 5388 5395 5397 5396 5394 5395 5395 5394 5395 5395 5394 5393 5393 5391 5391 5389 5388 5388 5386 5385 5385 5385 5384 5383 5383 5382 5381 5378 5376 5374 5372 5370 5368 5366 5365 5363 5362 5361 5360